Location: Warszawa
(52.2500°N, 21.0000°E)
Time: 20:30:24
(UTC+02:00)

AO-91 - Pass Details

Date: 01 May 2024
Orbit: 441 x 737 km, 97.6° (Epoch: 20 May)

Event Time Altitude Azimuth Distance (km) Brightness Sun altitude
Rises 23:28:21 0° 2° (N) 2,464 ? -20.9°
Reaches altitude 10° 23:30:39 10° 346° (NNW) 1,607 ? -21.0°
Maximum altitude 23:33:18 21° 295° (WNW) 1,097 ? -21.1°
Enters shadow 23:35:25 13° 252° (WSW) 1,466 ? -21.2°
